Location: Anan
(43.3550°N, 0.8171°E)
Time: 08:38:15
(UTC+00:00)

Cosmos 2084 Rocket - Pass Details

Date: 14 May 2026
Orbit: 528 x 582 km, 62.8° (Epoch: 6 June)

Event Time Altitude Azimuth Distance (km) Brightness Sun altitude
Rises 19:45:02 0° 327° (NNW) 2,755 8.3 -5.9°
Reaches altitude 10° 19:47:20 10° 334° (NNW) 1,865 7.1 -6.2°
Maximum altitude 19:51:23 44° 47° (NE) 798 4.1 -6.8°
Drops below altitude 10° 19:55:27 10° 120° (ESE) 1,882 5.4 -7.4°
Enters shadow 19:55:35 - 121° (ESE) 1,932 5.4 -7.4°
